Weather History for Litchfield, MN

Change the Weather History Date:

Tuesday, October 1, 2013

  Actual Average Record
Temperature  
Mean Temperature 64 °F -  
Max Temperature 73 °F 69 °F 88 °F (1963)
Min Temperature 55 °F 43 °F 27 °F (1974)
Degree Days  
Heating Degree Days 1    
Growing Degree Days 14 (Base 50)    
Moisture  
Dew Point 43 °F    
Average Humidity 47    
Maximum Humidity 72    
Minimum Humidity 20    
Precipitation  
Precipitation 0.00 in - - ()
Sea Level Pressure  
Sea Level Pressure 29.82 in    
Wind  
Wind Speed 7 mph (West)    
Max Wind Speed 16 mph    
Max Gust Speed 24 mph    
Visibility 10 miles    
Events      
Averages and records for this station are not official NWS values.
T = Trace of Precipitation, MM = Missing Value Source: NWS Daily Summary

Daily Weather History Graph

Daily Weather History Graph

Search for Another Location

Airport:

Trip Planner

Search our weather history database for the weather conditions in past years. The results will help you decide how hot, cold, wet, or windy it might be!

Date:

Astronomy

Oct. 01, 2013 Rise Set
Actual Time 7:16 AM CDT 6:57 PM CDT
Civil Twilight 6:47 AM CDT 7:27 PM CDT
Nautical Twilight 6:12 AM CDT 8:01 PM CDT
Astronomical Twilight 5:38 AM CDT 8:35 PM CDT
Moon 3:43 AM CDT 5:08 PM CDT
Length of Visible Light 12h 40m
Length of Day
11h 41m
Waning Crescent, 12% of the Moon is Illuminated
Oct 1
Waning Crescent
Oct 4
New
Oct 11
First Quarter
Oct 18
Full
Oct 26
Last Quarter

Hourly Weather History & Observations

Time (CDT) Temp. Dew Point Humidity Pressure Visibility Wind Dir Wind Speed Gust Speed Precip Events Conditions
12:13 AM 64.4 °F 51.8 °F 64% 29.59 in 10.0 mi SSE 4.6 mph - N/A   Clear
12:32 AM 64.4 °F 51.8 °F 64% 29.58 in 10.0 mi SSE 5.8 mph - N/A   Clear
12:53 AM 64.4 °F 51.8 °F 64% 29.58 in 10.0 mi SSE 4.6 mph - N/A   Clear
1:13 AM 64.4 °F 51.8 °F 64% 29.57 in 10.0 mi SSE 5.8 mph - N/A   Clear
1:32 AM 64.4 °F 51.8 °F 64% 29.57 in 10.0 mi South 5.8 mph - N/A   Clear
1:53 AM 64.4 °F 51.8 °F 64% 29.57 in 10.0 mi South 4.6 mph - N/A   Clear
2:13 AM 64.4 °F 51.8 °F 64% 29.57 in 10.0 mi South 4.6 mph - N/A   Clear
2:32 AM 64.4 °F 51.8 °F 64% 29.58 in 10.0 mi South 5.8 mph - N/A   Clear
2:53 AM 64.4 °F 53.6 °F 68% 29.58 in 10.0 mi SSW 4.6 mph - N/A   Clear
3:13 AM 64.4 °F 53.6 °F 68% 29.57 in 10.0 mi South 4.6 mph - N/A   Clear
3:32 AM 64.4 °F 53.6 °F 68% 29.58 in 10.0 mi SSW 4.6 mph - N/A   Scattered Clouds
3:53 AM 64.4 °F 51.8 °F 64% 29.59 in 10.0 mi SW 4.6 mph - N/A   Unknown
4:12 AM 64.4 °F 51.8 °F 64% 29.60 in 10.0 mi SW 6.9 mph - N/A   Unknown
4:33 AM 66.2 °F 51.8 °F 60% 29.60 in 10.0 mi SW 6.9 mph - N/A   Clear
4:53 AM 66.2 °F 51.8 °F 60% 29.63 in 10.0 mi West 12.7 mph 21.9 mph N/A   Clear
5:12 AM 64.4 °F 51.8 °F 64% 29.64 in 10.0 mi WNW 8.1 mph - N/A   Clear
5:32 AM 64.4 °F 51.8 °F 64% 29.67 in 10.0 mi West 11.5 mph 16.1 mph N/A   Scattered Clouds
5:53 AM 64.4 °F 51.8 °F 64% 29.69 in 10.0 mi WNW 9.2 mph - N/A   Clear
6:12 AM 62.6 °F 53.6 °F 72% 29.70 in 10.0 mi WNW 10.4 mph - N/A   Clear
6:32 AM 62.6 °F 53.6 °F 72% 29.72 in 10.0 mi WNW 8.1 mph - N/A   Clear
6:53 AM 60.8 °F 51.8 °F 72% 29.74 in 10.0 mi West 9.2 mph - N/A   Clear
7:13 AM 60.8 °F 51.8 °F 72% 29.76 in 10.0 mi West 12.7 mph 16.1 mph N/A   Clear
7:32 AM 60.8 °F 48.2 °F 63% 29.78 in 10.0 mi WNW 11.5 mph 16.1 mph N/A   Scattered Clouds
7:53 AM 60.8 °F 48.2 °F 63% 29.79 in 10.0 mi WNW 10.4 mph 16.1 mph N/A   Clear
8:13 AM 60.8 °F 50.0 °F 68% 29.80 in 10.0 mi West 8.1 mph 17.3 mph N/A   Clear
8:32 AM 60.8 °F 50.0 °F 68% 29.81 in 10.0 mi West 11.5 mph 16.1 mph N/A   Clear
8:53 AM 60.8 °F 50.0 °F 68% 29.83 in 10.0 mi West 10.4 mph - N/A   Clear
9:13 AM 62.6 °F 48.2 °F 59% 29.83 in 10.0 mi WNW 11.5 mph 19.6 mph N/A   Clear
9:32 AM 62.6 °F 46.4 °F 55% 29.85 in 10.0 mi WNW 11.5 mph 18.4 mph N/A   Clear
9:53 AM 64.4 °F 44.6 °F 49% 29.86 in 10.0 mi WNW 10.4 mph 16.1 mph N/A   Clear
10:13 AM 64.4 °F 44.6 °F 49% 29.86 in 10.0 mi West 10.4 mph - N/A   Clear
10:32 AM 64.4 °F 44.6 °F 49% 29.87 in 10.0 mi WNW 8.1 mph - N/A   Clear
10:53 AM 66.2 °F 42.8 °F 43% 29.88 in 10.0 mi West 8.1 mph - N/A   Clear
11:12 AM 68.0 °F 39.2 °F 35% 29.88 in 10.0 mi NW 9.2 mph - N/A   Clear
11:33 AM 69.8 °F 39.2 °F 33% 29.89 in 10.0 mi WNW 11.5 mph 20.7 mph N/A   Clear
11:52 AM 69.8 °F 39.2 °F 33% 29.89 in 10.0 mi West 11.5 mph - N/A   Clear
12:13 PM 69.8 °F 39.2 °F 33% 29.88 in 10.0 mi West 8.1 mph 16.1 mph N/A   Clear
12:33 PM 69.8 °F 37.4 °F 31% 29.89 in 10.0 mi WNW 10.4 mph - N/A   Clear
12:52 PM 71.6 °F 35.6 °F 27% 29.89 in 10.0 mi West 15.0 mph 21.9 mph N/A   Clear
1:13 PM 71.6 °F 37.4 °F 29% 29.89 in 10.0 mi West 13.8 mph 20.7 mph N/A   Clear
1:32 PM 71.6 °F 35.6 °F 27% 29.89 in 10.0 mi West 10.4 mph 20.7 mph N/A   Clear
1:53 PM 71.6 °F 33.8 °F 25% 29.89 in 10.0 mi WNW 16.1 mph 23.0 mph N/A   Clear
2:13 PM 73.4 °F 33.8 °F 23% 29.89 in 10.0 mi WNW 12.7 mph 19.6 mph N/A   Clear
2:32 PM 71.6 °F 35.6 °F 27% 29.89 in 10.0 mi WNW 10.4 mph 18.4 mph N/A   Clear
2:53 PM 73.4 °F 33.8 °F 23% 29.90 in 10.0 mi West 13.8 mph 21.9 mph N/A   Clear
3:13 PM 73.4 °F 33.8 °F 23% 29.90 in 10.0 mi WNW 13.8 mph 21.9 mph N/A   Clear
3:32 PM 73.4 °F 32.0 °F 22% 29.90 in 10.0 mi WNW 15.0 mph - N/A   Clear
3:53 PM 73.4 °F 30.2 °F 20% 29.90 in 10.0 mi West 13.8 mph 24.2 mph N/A   Clear
4:12 PM 73.4 °F 30.2 °F 20% 29.90 in 10.0 mi West 13.8 mph 21.9 mph N/A   Clear
4:32 PM 73.4 °F 32.0 °F 22% 29.90 in 10.0 mi West 11.5 mph - N/A   Clear
4:53 PM 73.4 °F 33.8 °F 23% 29.91 in 10.0 mi West 12.7 mph 18.4 mph N/A   Clear
5:12 PM 71.6 °F 33.8 °F 25% 29.91 in 10.0 mi West 10.4 mph 18.4 mph N/A   Clear
5:33 PM 71.6 °F 33.8 °F 25% 29.91 in 10.0 mi West 11.5 mph 17.3 mph N/A   Clear
5:53 PM 71.6 °F 35.6 °F 27% 29.92 in 10.0 mi West 6.9 mph - N/A   Clear
6:12 PM 69.8 °F 33.8 °F 27% 29.92 in 10.0 mi West 5.8 mph - N/A   Clear
6:33 PM 68.0 °F 35.6 °F 30% 29.92 in 10.0 mi WSW 4.6 mph - N/A   Clear
6:53 PM 66.2 °F 35.6 °F 32% 29.92 in 10.0 mi WSW 4.6 mph - N/A   Clear
7:12 PM 64.4 °F 35.6 °F 34% 29.93 in 10.0 mi WSW 3.5 mph - N/A   Clear
7:33 PM 62.6 °F 35.6 °F 37% 29.93 in 10.0 mi WSW 3.5 mph - N/A   Clear
7:53 PM 62.6 °F 35.6 °F 37% 29.94 in 10.0 mi SW 3.5 mph - N/A   Unknown
8:12 PM 57.2 °F 39.2 °F 51% 29.95 in 10.0 mi Calm Calm - N/A   Clear
8:33 PM 59.0 °F 37.4 °F 45% 29.95 in 10.0 mi Calm Calm - N/A   Clear
8:53 PM 59.0 °F 37.4 °F 45% 29.96 in 10.0 mi West 3.5 mph - N/A   Unknown
9:12 PM 59.0 °F 37.4 °F 45% 29.96 in 10.0 mi Calm Calm - N/A   Unknown
9:33 PM 57.2 °F 37.4 °F 48% 29.97 in 10.0 mi Calm Calm - N/A   Unknown
9:52 PM 57.2 °F 37.4 °F 48% 29.97 in 10.0 mi Calm Calm - N/A   Scattered Clouds
10:13 PM 57.2 °F 37.4 °F 48% 29.97 in 10.0 mi Calm Calm - N/A   Clear
10:32 PM 57.2 °F 37.4 °F 48% 29.98 in 10.0 mi Calm Calm - N/A   Unknown
10:53 PM 55.4 °F 37.4 °F 51% 29.99 in 10.0 mi Calm Calm - N/A   Scattered Clouds
11:12 PM 55.4 °F 39.2 °F 54% 29.99 in 10.0 mi Calm Calm - N/A   Scattered Clouds
11:32 PM 55.4 °F 37.4 °F 51% 30.00 in 10.0 mi WSW 4.6 mph - N/A   Unknown
11:53 PM 57.2 °F 37.4 °F 48% 30.01 in 10.0 mi WSW 3.5 mph - N/A   Scattered Clouds